Weather History for Elkins, WV

Change the Weather History Date:

Friday, May 10, 2013

  Actual Average Record
Temperature  
Mean Temperature 63 °F 56 °F  
Max Temperature 79 °F 69 °F 90 °F (1936)
Min Temperature 47 °F 44 °F 20 °F (1966)
Degree Days  
Heating Degree Days 2 9  
Month to date heating degree days 75 100  
Since 1 July heating degree days 5633 5663  
Cooling Degree Days 0 0  
Month to date cooling degree days 0 0  
Year to date cooling degree days 3 3  
Growing Degree Days 12 (Base 50)    
Moisture  
Dew Point 51 °F    
Average Humidity 68    
Maximum Humidity 100    
Minimum Humidity 35    
Precipitation  
Precipitation 0.42 in 0.17 in 1.16 in (2003)
Month to date precipitation 1.96 1.57  
Year to date precipitation 14.54 15.66  
Snow  
Snow 0.00 in - - ()
Month to date snowfall 0.0  
Since 1 September snowfall 77.5  
Snow Depth 0.00 in    
Sea Level Pressure  
Sea Level Pressure 30.03 in    
Wind  
Wind Speed 4 mph (South)    
Max Wind Speed 21 mph    
Max Gust Speed 31 mph    
Visibility 5 miles    
Events Fog , Rain    
T = Trace of Precipitation, MM = Missing Value Source: NWS Daily Summary

Daily Weather History Graph

Daily Weather History Graph

Search for Another Location

Airport:

Trip Planner

Search our weather history database for the weather conditions in past years. The results will help you decide how hot, cold, wet, or windy it might be!

Date:

Astronomy

May. 10, 2013 Rise Set
Actual Time 6:11 AM EDT 8:20 PM EDT
Civil Twilight 5:41 AM EDT 8:50 PM EDT
Nautical Twilight 5:05 AM EDT 9:26 PM EDT
Astronomical Twilight 4:26 AM EDT 10:06 PM EDT
Moon 6:34 AM EDT (5/10) 9:08 PM EDT (5/10)
Length of Visible Light 15h 08m
Length of Day
14h 09m
New Moon, 0% of the Moon is Illuminated
May 10
New Moon
May 18
First Quarter
May 25
Full
May 31
Last Quarter
Jun 8
New

Hourly Weather History & Observations

Time (EDT) Temp. Dew Point Humidity Pressure Visibility Wind Dir Wind Speed Gust Speed Precip Events Conditions
12:51 AM 52.0 °F 51.1 °F 97% 30.10 in 7.0 mi Calm Calm - N/A   Partly Cloudy
1:36 AM 48.2 °F 48.2 °F 100% 30.09 in 2.0 mi Calm Calm - N/A   Clear
1:46 AM 48.2 °F 48.2 °F 100% 30.09 in 3.0 mi Calm Calm - N/A   Clear
1:51 AM 48.9 °F 46.9 °F 93% 30.09 in 3.0 mi Calm Calm - N/A   Clear
1:56 AM 50.0 °F 48.2 °F 94% 30.09 in 1.5 mi Calm Calm - N/A   Clear
2:00 AM 48.2 °F 46.4 °F 93% 30.09 in 0.8 mi Calm Calm - N/A   Mist
2:19 AM 48.2 °F 46.4 °F 93% 30.08 in 1.2 mi Calm Calm - N/A   Scattered Clouds
2:26 AM 48.2 °F 46.4 °F 93% 30.08 in 3.0 mi Calm Calm - N/A   Scattered Clouds
2:29 AM 48.2 °F 46.4 °F 93% 30.08 in 2.0 mi Calm Calm - N/A   Mostly Cloudy
2:33 AM 48.2 °F 46.4 °F 93% 30.08 in 0.8 mi Calm Calm - N/A   Mist
2:44 AM 48.2 °F 46.4 °F 93% 30.08 in 0.2 mi Calm Calm - N/A Fog Fog
2:51 AM 48.0 °F 46.0 °F 93% 30.08 in 0.5 mi Calm Calm - N/A Fog Fog
3:01 AM 48.2 °F 46.4 °F 93% 30.08 in 1.2 mi Calm Calm - N/A   Partly Cloudy
3:11 AM 48.2 °F 46.4 °F 93% 30.08 in 0.8 mi Calm Calm - N/A   Mist
3:28 AM 46.4 °F 46.4 °F 100% 30.08 in 1.8 mi Calm Calm - N/A   Mostly Cloudy
3:36 AM 48.2 °F 46.4 °F 93% 30.08 in 2.5 mi Calm Calm - N/A   Overcast
3:43 AM 48.2 °F 46.4 °F 93% 30.08 in 3.0 mi Calm Calm - N/A   Overcast
3:51 AM 48.0 °F 46.0 °F 93% 30.08 in 1.8 mi Calm Calm - N/A   Mostly Cloudy
4:12 AM 48.2 °F 46.4 °F 93% 30.07 in 2.0 mi Calm Calm - N/A   Partly Cloudy
4:21 AM 48.2 °F 46.4 °F 93% 30.07 in 3.0 mi Calm Calm - N/A   Partly Cloudy
4:51 AM 48.0 °F 46.9 °F 96% 30.07 in 4.0 mi Calm Calm - N/A   Mostly Cloudy
5:51 AM 48.9 °F 46.9 °F 93% 30.06 in 5.0 mi Calm Calm - N/A   Mostly Cloudy
6:36 AM 48.2 °F 46.4 °F 93% 30.06 in 1.8 mi Calm Calm - N/A   Scattered Clouds
6:46 AM 48.2 °F 46.4 °F 93% 30.07 in 3.0 mi Calm Calm - N/A   Mostly Cloudy
6:51 AM 48.9 °F 48.0 °F 97% 30.08 in 5.0 mi Calm Calm - N/A   Mostly Cloudy
7:51 AM 52.0 °F 50.0 °F 93% 30.06 in 8.0 mi Calm Calm - N/A   Overcast
8:51 AM 55.0 °F 51.1 °F 86% 30.06 in 10.0 mi Calm Calm - N/A   Overcast
9:51 AM 57.0 °F 54.0 °F 89% 30.07 in 10.0 mi Calm Calm - 0.00 in Rain Light Rain
10:51 AM 66.9 °F 55.9 °F 68% 30.04 in 10.0 mi SSW 5.8 mph - 0.00 in   Clear
11:51 AM 73.0 °F 55.9 °F 55% 30.01 in 10.0 mi South 6.9 mph - N/A   Scattered Clouds
12:51 PM 73.9 °F 54.0 °F 50% 29.99 in 10.0 mi Calm Calm - N/A   Overcast
1:51 PM 77.0 °F 54.0 °F 45% 29.96 in 10.0 mi Variable 3.5 mph - N/A   Mostly Cloudy
2:51 PM 78.1 °F 48.9 °F 36% 29.94 in 10.0 mi West 15.0 mph 20.7 mph N/A   Scattered Clouds
3:51 PM 75.9 °F 51.1 °F 42% 29.92 in 10.0 mi SSW 8.1 mph - N/A   Mostly Cloudy
4:51 PM 62.1 °F 55.9 °F 80% 29.99 in 2.0 mi SSE 16.1 mph 24.2 mph 0.12 in Rain Heavy Rain
5:04 PM 60.8 °F 57.2 °F 88% 30.00 in 4.0 mi South 8.1 mph - 0.11 in Rain Light Rain
5:15 PM 60.8 °F 55.4 °F 82% 29.98 in 2.0 mi SSE 3.5 mph 18.4 mph 0.25 in Rain Light Rain
5:24 PM 60.8 °F 57.2 °F 88% 29.98 in 10.0 mi SSE 4.6 mph - 0.25 in   Mostly Cloudy
5:51 PM 62.1 °F 55.9 °F 80% 29.99 in 10.0 mi West 3.5 mph - 0.25 in   Mostly Cloudy
6:51 PM 62.1 °F 57.9 °F 86% 29.98 in 10.0 mi ENE 3.5 mph - 0.00 in Rain Light Rain
7:11 PM 60.8 °F 57.2 °F 88% 29.98 in 6.0 mi Calm Calm - N/A Rain Light Rain
7:23 PM 60.8 °F 57.2 °F 88% 29.97 in 6.0 mi SE 3.5 mph - 0.02 in Rain Light Rain
7:51 PM 61.0 °F 57.9 °F 90% 29.98 in 10.0 mi SE 5.8 mph - 0.03 in Rain Light Rain
8:51 PM 60.1 °F 57.0 °F 90% 29.96 in 9.0 mi Calm Calm - 0.00 in   Overcast
9:51 PM 59.0 °F 57.0 °F 93% 29.93 in 9.0 mi Calm Calm - 0.00 in Rain Light Rain
10:51 PM 60.1 °F 57.0 °F 90% 29.92 in 10.0 mi SSE 4.6 mph - 0.01 in Rain Light Rain
11:51 PM 59.0 °F 55.9 °F 90% 29.90 in 10.0 mi SE 4.6 mph - 0.01 in   Overcast